Wind_Speed
18 19 21 22 24 25 26 26 27 28 28 29 29 30 30 30 31 33 34 35 37 38 39 40 41 42 42 42 43 43 42 42 42 41 40 37 36 35 34 33 32 30 27 26
18 20 21 22 23 24 25 26 26 27 28 28 28 29 30 31 32 33 35 36 38 39 41 42 43 44 44 45 45 45 45 44 44 44 43 41 40 38 35 33 33 31 30 28
18 19 20 21 22 23 24 25 25 27 28 28 29 30 31 32 33 34 36 37 38 39 39 40 43 44 45 46 46 46 46 45 45 44 44 43 41 41 38 35 34 34 33 31
17 18 19 20 21 22 23 23 24 26 27 28 28 29 29 31 32 34 35 35 36 38 39 39 40 41 42 43 44 44 44 44 44 44 43 43 42 41 39 38 36 36 35 33
15 16 17 18 19 20 21 22 23 24 25 26 26 27 28 28 29 31 32 33 35 36 36 37 38 38 38 39 39 39 40 41 42 41 41 41 41 41 39 38 38 37 36 35
13 15 16 17 17 18 19 21 22 22 22 23 23 25 25 26 26 27 28 30 31 32 33 34 33 32 32 33 34 34 35 36 37 37 37 37 37 38 37 37 37 36 37 36
12 13 14 15 15 16 18 20 21 20 20 21 21 22 22 23 23 23 23 24 26 27 27 27 27 26 26 26 28 28 27 27 28 30 31 32 32 33 34 34 35 35 35 35
11 12 14 14 15 17 18 19 19 19 19 19 19 19 20 21 21 21 21 21 21 21 21 21 20 21 20 20 19 19 19 20 20 21 22 24 25 25 27 29 31 31 31 32
10 12 13 14 16 17 18 18 18 17 16 16 16 17 18 18 19 19 19 19 18 17 17 17 16 15 13 12 11 11 12 13 16 17 17 18 19 19 20 23 25 25 27 27
11 12 13 14 15 16 17 16 16 14 14 14 14 14 15 15 16 16 16 16 17 17 17 15 13 12 11 9 8 7 7 7 9 10 11 13 15 15 16 18 20 22 23 24
12 13 14 15 16 16 16 15 14 14 13 13 13 14 14 15 15 15 15 16 16 15 16 15 14 12 11 10 8 6 5 5 4 5 6 8 10 12 13 14 16 18 19 20
13 14 15 15 15 15 15 14 14 13 13 12 13 13 14 15 15 16 17 17 17 17 17 17 16 15 14 12 10 8 7 6 4 2 2 4 5 7 8 10 12 13 15 16
14 16 16 15 15 15 14 14 13 13 13 13 13 14 14 15 15 16 17 18 18 19 19 19 17 17 17 16 14 13 11 10 9 7 5 3 1 2 3 5 7 8 10 11
15 16 17 16 16 15 15 14 14 14 14 14 14 15 15 15 15 16 16 17 19 20 20 20 19 18 18 18 18 18 16 14 13 12 10 8 7 5 4 3 2 3 4 6
16 17 17 17 16 16 15 15 14 14 14 15 15 15 16 16 16 16 18 19 20 20 21 20 20 20 20 19 18 18 17 17 16 15 14 12 11 10 9 7 6 5 5 5
16 17 18 17 17 16 16 15 15 14 14 15 15 15 16 16 16 17 18 18 19 19 20 21 21 21 21 20 20 20 19 19 18 17 16 14 13 13 12 10 9 8 7 7
16 17 18 17 17 17 16 16 16 15 15 15 15 16 16 16 16 17 18 18 19 19 19 21 22 22 22 22 21 20 20 20 19 19 18 17 16 15 14 13 11 10 9 9
15 16 17 17 17 16 16 16 17 16 15 15 15 16 17 17 17 17 18 19 19 20 20 20 21 21 21 21 21 21 20 19 20 19 19 18 17 16 15 14 13 12 11 11
13 14 16 16 16 15 15 16 16 16 16 15 15 16 17 17 17 17 18 18 19 19 20 20 20 21 21 21 21 21 21 20 20 19 19 19 19 18 17 17 16 15 14 13
11 13 14 15 15 14 14 15 15 15 15 15 15 15 16 16 16 17 17 18 18 19 19 19 19 19 20 20 20 20 20 20 20 20 20 20 19 19 19 19 18 17 16 16
8 10 12 13 14 14 14 14 14 14 14 14 14 14 15 15 16 16 16 16 16 17 18 18 18 18 18 19 19 19 20 20 20 20 20 20 20 20 20 19 19 18 17 17
6 8 9 11 12 12 12 12 12 12 12 12 12 12 13 13 14 14 15 15 15 15 16 17 17 17 17 18 18 19 19 19 20 20 21 21 21 21 21 20 20 19 19 18
5 6 7 9 10 10 11 11 11 10 10 10 10 10 10 11 11 12 13 13 14 14 15 15 16 16 17 17 18 18 19 19 20 20 21 21 21 21 21 21 21 20 20 19
5 5 5 6 7 8 9 9 9 9 9 8 8 8 8 8 9 9 10 11 12 13 13 14 15 15 16 17 17 18 18 19 20 20 21 21 21 21 21 21 21 21 21 20
6 6 5 5 5 6 7 7 7 7 7 7 7 7 6 7 7 8 8 9 10 11 11 12 13 14 15 16 17 17 18 18 19 20 20 21 22 21 21 21 22 22 22 21
8 7 7 6 6 5 5 6 6 6 6 6 6 6 5 6 6 6 7 8 8 9 10 11 11 12 13 14 15 16 17 18 19 19 20 20 21 21 21 21 22 22 22 21
Wind_Direction
263 270 276 279 282 283 285 285 285 284 284 282 282 282 283 284 284 283 282 280 279 278 277 275 274 273 270 268 267 264 262 259 257 257 257 255 254 254 255 254 255 256 258 258
269 276 281 284 286 287 287 287 287 286 285 284 284 283 284 285 285 284 283 282 281 280 279 277 276 273 272 270 269 267 264 262 259 257 256 255 253 254 255 255 254 255 257 257
277 283 286 288 290 291 290 291 290 290 289 287 286 286 287 286 285 285 284 283 282 281 280 279 279 277 274 272 270 268 266 264 262 259 257 255 255 254 255 257 255 255 256 257
284 288 291 293 295 296 296 296 294 292 290 289 290 290 290 289 288 288 287 287 286 285 284 283 281 278 276 273 271 269 267 266 264 261 258 256 254 253 254 255 255 256 257 259
291 295 298 300 301 301 300 299 299 298 295 293 293 293 294 293 293 291 291 290 289 289 288 287 286 283 279 275 273 270 266 264 263 260 258 256 253 252 253 254 256 258 259 260
299 304 307 309 309 307 305 304 303 302 300 297 297 297 298 299 297 294 294 294 293 293 293 293 291 289 286 280 276 273 268 265 263 260 257 255 253 252 252 253 253 254 255 257
312 315 318 319 319 318 317 315 313 309 305 304 303 302 306 307 307 305 304 303 302 303 303 299 297 296 293 286 281 275 270 266 263 259 256 254 253 252 252 251 251 253 256 257
329 327 325 323 322 322 322 320 319 317 314 312 311 311 315 317 320 320 320 319 318 318 316 312 309 304 304 297 287 278 269 265 260 256 253 252 251 251 250 250 252 254 257 258
338 333 331 328 328 328 329 329 328 325 321 320 322 322 325 329 333 335 334 333 335 335 334 331 328 325 323 318 305 286 274 268 263 258 253 249 249 250 250 250 252 254 258 258
350 345 344 341 339 338 338 339 339 337 338 338 338 341 344 344 347 349 352 353 353 352 355 356 358 358 350 345 340 322 296 286 274 262 255 250 250 251 253 252 253 254 259 259
359 355 353 351 350 349 349 349 350 351 351 353 356 360 2 4 4 2 2 5 6 9 12 16 16 13 10 5 2 357 358 340 315 283 261 252 250 251 254 255 256 257 258 258
9 4 2 0 360 0 1 1 2 5 8 8 8 9 12 14 15 15 17 19 21 22 25 28 29 29 26 21 26 29 32 30 21 350 296 262 258 259 258 259 257 258 260 262
15 12 11 11 12 11 10 10 12 16 17 17 15 15 16 17 19 22 25 27 29 31 33 34 37 41 40 42 43 46 51 54 57 59 57 54 1 287 278 270 264 263 265 265
21 21 21 22 21 18 17 17 17 19 22 23 24 25 26 25 25 26 29 33 37 39 41 42 45 45 47 49 52 53 57 59 59 60 59 61 58 48 35 18 345 302 285 282
25 26 26 28 26 25 24 22 22 24 25 27 29 31 33 33 34 35 38 41 43 45 47 47 47 48 49 51 53 56 57 58 58 57 57 55 52 48 45 42 36 21 5 347
29 28 27 29 29 28 26 25 26 28 29 30 32 33 34 36 39 41 42 44 47 48 49 49 50 51 52 53 54 55 56 57 55 55 54 53 51 47 44 39 32 22 12 359
31 29 28 29 29 30 30 29 31 32 33 34 36 38 40 42 44 46 47 49 51 52 52 53 54 55 54 55 56 56 56 54 54 53 52 49 47 44 41 36 30 23 16 8
33 31 30 30 30 33 32 33 34 35 38 40 43 44 45 48 50 51 52 54 54 54 55 55 55 55 54 54 54 54 54 53 51 49 46 46 43 40 36 33 28 23 17 9
34 32 31 31 32 34 35 35 35 38 42 46 48 49 50 51 53 54 55 55 54 54 56 56 56 55 54 52 51 50 50 49 47 45 43 41 38 36 32 29 27 23 17 11
31 30 29 29 31 34 37 38 39 41 45 48 51 52 51 52 53 56 56 56 55 55 56 55 54 53 51 49 48 46 44 43 41 39 37 35 33 31 29 26 24 21 18 15
23 25 26 26 29 33 35 38 40 44 46 49 52 53 53 53 55 58 58 55 54 55 54 52 51 49 47 44 42 41 40 39 37 35 33 32 31 29 26 24 22 20 18 17
7 14 19 22 25 28 32 36 40 45 48 49 50 51 53 55 56 57 56 54 54 52 49 47 45 43 41 39 38 38 37 35 34 32 31 30 29 27 26 25 24 23 22 21
339 354 4 13 20 25 29 33 37 40 44 46 49 50 53 54 54 52 52 51 49 47 44 42 40 39 38 36 35 35 34 33 32 31 30 29 28 28 27 27 27 26 26 27
308 322 337 351 4 14 19 26 30 33 37 41 44 45 46 47 45 44 44 42 41 40 38 37 36 36 36 35 35 34 33 31 30 29 29 29 28 28 28 29 29 30 31 33
285 291 301 318 337 354 4 11 18 21 24 28 31 32 33 34 36 35 34 33 32 32 31 31 31 32 32 33 32 32 31 30 29 29 29 29 28 28 29 30 31 33 35 37
273 278 281 285 297 318 336 347 355 5 10 12 14 16 19 21 22 22 21 21 21 21 22 23 24 25 27 28 28 28 27 28 28 28 28 28 28 29 30 32 34 35 38 41
Height
5896 5896 5894 5893 5892 5890 5888 5886 5884 5882 5880 5878 5876 5874 5872 5870 5868 5866 5864 5863 5861 5859 5857 5855 5853 5852 5851 5850 5850 5850 5850 5851 5852 5853 5853 5855 5856 5857 5858 5859 5859 5860 5861 5862
5894 5892 5891 5889 5887 5886 5884 5881 5879 5876 5874 5872 5870 5868 5866 5863 5861 5858 5856 5853 5851 5849 5846 5844 5842 5840 5839 5838 5837 5837 5838 5839 5840 5842 5843 5845 5847 5849 5850 5851 5852 5853 5854 5855
5890 5889 5887 5885 5883 5881 5879 5876 5873 5870 5868 5865 5863 5861 5859 5856 5853 5850 5847 5844 5841 5838 5836 5833 5830 5828 5827 5825 5825 5825 5825 5826 5828 5830 5832 5834 5837 5840 5842 5843 5845 5846 5847 5848
5887 5885 5883 5881 5879 5876 5873 5871 5868 5864 5861 5859 5857 5854 5852 5848 5845 5842 5839 5835 5832 5828 5825 5822 5819 5817 5815 5813 5812 5812 5813 5814 5816 5818 5820 5823 5826 5830 5832 5835 5836 5838 5839 5841
5884 5882 5880 5877 5875 5872 5869 5866 5862 5859 5856 5853 5851 5848 5846 5842 5839 5835 5831 5827 5823 5819 5815 5812 5808 5805 5803 5802 5801 5801 5801 5802 5803 5806 5809 5812 5816 5819 5823 5825 5827 5829 5831 5833
5881 5879 5876 5874 5871 5868 5865 5862 5858 5855 5851 5849 5846 5843 5840 5836 5832 5829 5824 5820 5815 5811 5807 5803 5799 5796 5793 5791 5791 5790 5791 5791 5793 5795 5798 5801 5805 5809 5813 5816 5819 5821 5823 5825
5879 5876 5874 5871 5868 5865 5862 5858 5855 5851 5847 5845 5841 5838 5835 5830 5826 5822 5818 5814 5809 5804 5800 5796 5792 5789 5786 5783 5782 5781 5782 5783 5784 5786 5789 5792 5796 5800 5804 5807 5810 5813 5815 5817
5877 5875 5872 5868 5866 5862 5858 5855 5852 5848 5844 5841 5837 5834 5831 5826 5822 5817 5813 5809 5804 5800 5795 5790 5787 5784 5781 5778 5776 5775 5776 5776 5777 5779 5782 5785 5789 5792 5796 5799 5802 5805 5807 5809
5876 5874 5870 5867 5863 5860 5856 5852 5849 5845 5841 5838 5835 5831 5828 5823 5819 5815 5810 5806 5801 5797 5792 5788 5784 5780 5777 5775 5773 5772 5772 5772 5773 5774 5777 5780 5783 5786 5789 5792 5795 5798 5800 5802
5875 5873 5869 5866 5862 5858 5854 5850 5847 5843 5839 5836 5833 5830 5827 5822 5818 5814 5810 5805 5801 5796 5791 5787 5783 5779 5776 5774 5772 5771 5770 5770 5771 5772 5773 5776 5778 5781 5784 5787 5789 5792 5793 5795
5875 5872 5869 5864 5860 5856 5853 5850 5845 5842 5839 5836 5833 5832 5826 5822 5818 5814 5810 5806 5801 5796 5792 5788 5784 5781 5777 5775 5773 5771 5771 5770 5770 5771 5772 5773 5775 5778 5780 5782 5784 5786 5787 5789
5875 5871 5867 5864 5860 5856 5852 5849 5846 5843 5839 5836 5833 5833 5826 5822 5819 5815 5811 5807 5803 5798 5794 5790 5787 5783 5780 5777 5775 5773 5772 5772 5771 5771 5772 5773 5774 5776 5777 5778 5780 5781 5782 5783
5875 5872 5867 5864 5862 5857 5853 5850 5846 5844 5840 5837 5834 5834 5827 5824 5820 5816 5813 5809 5805 5801 5797 5793 5790 5787 5784 5780 5778 5776 5775 5774 5773 5773 5772 5773 5774 5775 5775 5776 5777 5778 5779 5779
5875 5872 5869 5866 5861 5857 5854 5851 5848 5845 5842 5838 5835 5832 5829 5825 5822 5818 5815 5811 5808 5804 5800 5797 5794 5791 5788 5785 5782 5780 5778 5777 5776 5775 5775 5774 5775 5775 5775 5775 5775 5775 5776 5776
5876 5873 5869 5866 5862 5859 5856 5852 5849 5846 5843 5840 5837 5834 5831 5828 5824 5821 5818 5815 5811 5808 5805 5802 5799 5795 5792 5789 5787 5785 5783 5782 5780 5779 5778 5778 5777 5776 5776 5775 5775 5775 5774 5774
5877 5874 5871 5867 5864 5861 5858 5854 5851 5848 5845 5842 5839 5837 5833 5830 5827 5824 5821 5818 5815 5812 5809 5806 5803 5800 5797 5795 5792 5790 5788 5786 5785 5783 5782 5781 5780 5778 5777 5776 5775 5774 5774 5773
5879 5876 5873 5870 5866 5863 5860 5857 5854 5851 5848 5845 5842 5840 5835 5833 5830 5827 5825 5822 5819 5816 5814 5811 5808 5805 5803 5800 5798 5795 5793 5791 5789 5787 5786 5784 5782 5781 5779 5777 5776 5775 5773 5772
5881 5878 5875 5872 5870 5866 5865 5859 5856 5853 5850 5847 5844 5842 5839 5836 5834 5831 5829 5826 5823 5821 5818 5816 5813 5811 5808 5806 5803 5801 5798 5796 5794 5792 5790 5787 5785 5783 5781 5779 5777 5775 5773 5771
5883 5880 5877 5874 5871 5868 5866 5862 5859 5856 5853 5850 5848 5845 5842 5840 5837 5835 5832 5830 5828 5825 5823 5821 5818 5816 5813 5811 5808 5806 5803 5801 5798 5796 5793 5791 5788 5786 5783 5780 5777 5775 5772 5770
5884 5882 5880 5876 5873 5871 5869 5865 5861 5860 5857 5854 5851 5848 5846 5843 5842 5840 5837 5834 5832 5830 5828 5825 5823 5821 5818 5816 5813 5811 5808 5805 5803 5800 5797 5794 5791 5788 5785 5782 5779 5776 5773 5770
5885 5883 5881 5878 5876 5873 5870 5867 5865 5863 5861 5857 5854 5852 5849 5847 5846 5843 5841 5839 5837 5835 5832 5830 5828 5825 5823 5820 5818 5815 5812 5809 5806 5803 5800 5797 5794 5791 5787 5784 5780 5777 5774 5770
5885 5884 5882 5879 5877 5877 5872 5869 5867 5865 5862 5859 5857 5855 5853 5851 5849 5847 5845 5843 5841 5839 5837 5834 5832 5829 5827 5824 5822 5819 5816 5813 5810 5807 5804 5800 5797 5793 5790 5786 5782 5778 5775 5771
5885 5884 5882 5881 5880 5877 5874 5871 5869 5867 5864 5862 5860 5858 5856 5854 5852 5850 5848 5846 5844 5842 5840 5838 5835 5833 5830 5828 5825 5822 5820 5817 5814 5810 5807 5804 5800 5796 5793 5789 5785 5781 5777 5773
5884 5883 5882 5880 5879 5877 5875 5872 5870 5868 5866 5864 5862 5860 5858 5856 5854 5853 5851 5849 5847 5845 5843 5841 5838 5836 5834 5831 5828 5826 5823 5820 5817 5814 5810 5807 5803 5800 5796 5792 5788 5784 5780 5776
5882 5881 5880 5879 5878 5877 5875 5873 5871 5869 5867 5865 5863 5862 5860 5858 5856 5855 5853 5851 5849 5847 5845 5843 5841 5839 5836 5834 5831 5829 5826 5823 5820 5817 5813 5810 5806 5803 5799 5795 5791 5787 5783 5779
5879 5879 5879 5878 5877 5876 5875 5873 5871 5870 5868 5866 5864 5862 5861 5859 5857 5856 5854 5852 5851 5849 5847 5845 5843 5841 5839 5836 5834 5831 5829 5826 5823 5820 5817 5813 5810 5806 5802 5799 5795 5791 5787 5784